Regional Weather Roundup
Issued by NWS Wakefield, VA

Home | Current Version | Previous Version | Graphics & Text | Print | Product List | Glossary On
Versions: 1 2 3 4 5 6 7 8 9 10 11 12 13 14 15 16 17 18 19 20 21 22 23 24 25 26 27 28 29 30 31 32 33 34 35 36 37 38 39 40 41 42 43 44 45 46 47 48 49 50
000
ASUS41 KAKQ 200416
RWRAKQ

REGIONAL WEATHER ROUNDUP
NATIONAL WEATHER SERVICE WAKEFIELD VA
1200 AM EDT THU JUL 20 2017

Note: "fair" indicates few or no clouds below 12,000 feet with no
significant weather and/or obstructions to visibility. * = Denotes
station may not report precipitation (e.g., rain,snow,etc.),
thunder or fog.

VAZ042-051-052>054-056-200500-
NORTHERN VIRGINIA

CITY           SKY/WX    TMP DP  RH WIND       PRES   REMARKS
WASH NATIONAL  PTCLDY    84  76  76 S7        30.03S
DULLES         CLEAR     79  72  79 S3        30.03S
FORT BELVOIR   CLEAR     76  73  91 CALM      30.03S
QUANTICO       CLEAR     84  78  82 S7        30.03S HX  95
FREDERICKSBRG* CLEAR     78  74  88 CALM      30.03S
STAFFORD*      CLEAR     74  74 100 CALM      30.08R
WARRENTON      CLEAR     74  69  85 CALM      30.04S
CULPEPER*      CLEAR     74  74  99 CALM      30.05S FOG
MANASSAS*      CLEAR     77  74  90 CALM      30.04S
LEESBURG*      CLEAR     81  75  83 W5        30.05S
WINCHESTER     CLEAR     73  70  88 CALM      30.07R
FRONT ROYAL*   CLEAR     75  70  83 S3        30.06R
LURAY*         PTCLDY    73  72  94 CALM      30.07F
$$

VAZ048-049-060>072-079>083-200500-
CENTRAL AND SOUTH CENTRAL VIRGINIA

CITY           SKY/WX    TMP DP  RH WIND       PRES   REMARKS
RICHMOND       CLEAR     78  69  73 S5        30.05S
CHESTERFIELD*  FAIR      78  70  76 S5        30.06S
PETERSBURG*    CLEAR     75  68  78 CALM      30.06S
HANOVER        CLEAR     79  67  66 S6        30.06R
TAPPAHANNOCK*  CLEAR     77  71  82 S3        30.05S
QUINTON*       FAIR      78  73  85 CALM      30.05S
CHARLOTTSVILLE CLEAR     79  73  82 W3        30.06S
GORDONSVILLE*  CLEAR     74  72  93 CALM      30.05S
ORANGE*        CLEAR     73  70  88 CALM      30.05S
LOUISA*        CLEAR     73  68  83 CALM      30.06S
BUMPASS*       FAIR      75  71  86 CALM      30.05S
FARMVILLE*     CLEAR     74  68  79 CALM      30.06R
CREWE*         FAIR      75  66  72 S3        30.06S
FORT PICKETT*  FAIR     N/A N/A N/A S7        30.07S
CHASE CITY*    FAIR      74  74  99 CALM      30.08S
CLARKSVILLE*   FAIR      73  73 100 S3        30.07S
SOUTH HILL*    CLEAR     74  71  90 CALM      30.13S
LAWRENCEVILLE* FAIR      75  69  81 CALM      30.07S
EMPORIA*       CLEAR     75  70  83 SE3       30.08S
$$

VAZ088>098-200500-
SOUTHEAST VIRGINIA

CITY           SKY/WX    TMP DP  RH WIND       PRES   REMARKS
NORFOLK        CLEAR     79  74  84 SW10      30.06S
VIRGINIA BEACH CLEAR     77  71  82 SW8       30.05F
NORFOLK NAVAL  PTCLDY    80  72  76 S8        30.07F
WEST POINT*    CLEAR     79  71  75 S5        30.06S
SALUDA*        FAIR      79  77  94 S6        30.04S
NEWPORT NEWS   CLEAR     80  73  79 S10       30.05F
LANGLEY AFB    CLEAR     80  74  82 S10       30.05S
FORT EUSTIS    CLEAR     80  74  81 S5        30.03F
WILLIAMSBURG*  CLEAR     82  75  78 CALM      30.06S
HR EXEC AP*    FAIR      75  72  88 S6        30.04F
FRANKLIN*      CLEAR     75  73  94 S5        30.07S
US460-WAKEFLD  CLEAR     77  73  87 S5        30.05F
$$

VAZ020-022-025-037-045-200500-
WEST CENTRAL AND SOUTHWEST VIRGINIA

CITY           SKY/WX    TMP DP  RH WIND       PRES   REMARKS
STAUNTON*      CLEAR     72  68  88 CALM      30.12R
WAYNESBORO*    MOCLDY    75  69  82 S7        30.12S
HOT SPRINGS VA CLEAR     70  54  56 CALM      30.27S
LYNCHBURG      MOCLDY    75  71  87 CALM      30.10S
DANVILLE       PTCLDY    72  72 100 CALM      30.08F
SOUTH BOSTON*  FAIR      73  71  95 CALM      30.07S
MARTINSVILLE   CLEAR     70  69  95 CALM      30.13F
ROANOKE        PTCLDY    77  65  66 CALM      30.12F
BLACKSBURG     CLEAR     70  63  77 CALM      30.20F
DUBLIN*        CLEAR     72  61  68 CALM      30.19S
MARION*        MOCLDY    68  64  86 CALM      30.24S
HILLSVILLE*    CLOUDY    74  63  69 CALM      30.21F
RICHLANDS*     FAIR      75  57  54 CALM      30.23S
WISE*          PTCLDY    75  61  60 CALM      30.23S
ABINGDON*      CLEAR     73  67  80 CALM      30.19R
$$

MDZ021>025-VAZ099-100-200500-
SOUTHERN MARYLAND AND THE DELMARVA PENINSULA

CITY           SKY/WX    TMP DP  RH WIND       PRES   REMARKS
PATUXENT RIVER CLEAR     80  75  84 S6        30.03S
BAY BRIDGE APT NOT AVBL
LEONARDTOWN    CLEAR    N/A N/A N/A S3        30.05S
DOVER          CLEAR     78  78 100 S9        30.01S
GEORGETOWN     CLEAR     77  74  90 SW3       30.04R
EASTON         CLEAR     82  73  76 SW6       30.06S
CAMBRIDGE      CLEAR     79  75  89 CALM      30.03S
SALISBURY      NOT AVBL
OCEAN CITY     CLEAR     79  74  84 SW9       30.04S
WALLOPS ISLAND CLEAR     76  75  97 SW6       30.04F
ACCOMACK*      CLEAR     77  74  91 S6        30.05F
$$

NCZ012>017-030>032-200500-
NORTH CENTRAL AND EASTERN NORTH CAROLINA

CITY           SKY/WX    TMP DP  RH WIND       PRES   REMARKS
ROANOKE RAPIDS FAIR      73  73 100 CALM      30.08S
RALEIGH        CLEAR     79  71  76 S3        30.09R
ELIZABETH CITY CLEAR     76  75  97 SW5       30.07F
AHOSKIE*         N/A     73  72  95 CALM      30.08S
EDENTON*       CLEAR     80  73  78 CALM      30.08F
CURRITUCK*     CLEAR     78  77  97 SW3       30.07F
KILL DEVIL HLS CLEAR     78  72  81 CALM      30.07S
MANTEO         CLEAR     79  73  81 SW8       30.08S
CAPE HATTERAS  CLEAR     79  74  84 W3        30.08F
TARBORO*       NOT AVBL
GOLDSBORO      CLEAR     75  75 100 CALM      30.07S
WASHINGTON     CLEAR     76  72  87 S3        30.08S
GREENVILLE     CLEAR     77  73  88 CALM      30.09S
NEW BERN       CLEAR     73  72  96 CALM      30.08F
WILMINGTON     CLEAR     73  72  96 CALM      30.07F
$$

VAZ048-200500-
ELSEWHERE

CITY           SKY/WX    TMP DP  RH WIND       PRES   REMARKS
HARRISBURG PA  PTCLDY    76  73  91 CALM      30.02R
BALTIMORE      PTCLDY    81  73  76 SW6       30.02S
ANNAPOLIS      CLEAR     81  77  88 CALM      30.01F
ANDREWS AFB    CLEAR     77  72  84 S5        30.03S
PHILADELPHIA   MOCLDY    82  73  74 S3        30.01S
HENDERSON NC   CLEAR     72  68  87 SW3       30.09S
GREENSBORO     CLEAR     79  71  76 CALM      30.10S
ROCKY MOUNT    CLEAR     75  74  96 CALM      30.08S
$$

VAZ100-200500-
MARINE

STATION/POSITION TIME  TEMP    WIND        PRES    WAVE   SWELL
                       AIR SEA DIR/SP/G            HT/PER HT/PER
                 (UTC) (F)     (DEG/KT/KT) (MB)    (FT/S) (FT/S)
BRANDYWINE LGT   0348          230/ 12/ 13 1017.0R
CAPE MAY NJ      0348   76 75  220/  4/  6 1016.3R
LEWES DE         0348   78 73  240/  6/  9 1016.5R
15NM E FENWICK I 0350   78 77  210/ 16/ 19 1017.0F   2/15   2/15
OCEAN-CITY-INLET 0348   73 72  210/ 10/ 12 1017.3F
WACHAPREAGUE VA  0348   79 85  180/  6/  9 1017.3F
THOMAS POINT MD  0400   83 83  210/ 13/ 14   N/A
GOOSES REEF MD   0400   83 84  240/ 10/ 12 1017.4    1/ 2
COVE POINT MD    0348   81     210/  8/ 10 1017.5R
SOLOMONS ISLAND  0348   82 84  210/  9/ 12   N/A
BISHOPS HEAD MD  0348   84 87  200/ 14/ 16 1016.9F
PINEY POINT MD   0342          210/  8/  9   N/A
POTOMAC MD       0400   82 84  220/ 12/ 14 1016.1    1/ 2
CAMBRIDGE MD     0348   81 87              1017.7R
LEWISETTA VA     0348   81 86  210/  9/ 11 1016.8F
RAPPAHANNOCK LGT 0342          180/ 15/ 16 1017.9F
STINGRAY PT      0400   83 84  230/ 10/ 14 1017.1    1/ 3
YORK RVR RNG VA  0348   82     210/ 14/ 17 1017.6F
YORKTOWN VA      0348   81 83  200/  9/ 12 1017.1F
JAMESTOWN VA     0400      87  220/ 10/ 12   N/A
DOMINION TERM VA 0348   80     210/ 12/ 13 1017.8F
KIPTOPEKE VA     0342      78  180/  7/  7   N/A
CHES BAY BRIDGE  0348   80 80  210/ 12/ 16 1017.6F
CAPE HENRY VA    0348   79     210/  8/ 12   N/A
WILLOUBY STN VA  0348   80     210/ 14/ 16 1017.7F
S CRANEY ISL VA  0348   80     210/  9/ 11 1017.7F
CAPE HENRY BUOY  0400      75                N/A     2/15   2/15
1ST LANDING BUOY 0400   81 78              1017.7    1
64NM E OF VA BCH 0350   80 80  230/ 10/ 12 1018.6F   3/ 6   2/ 6
DUCK PIER NC     0348   80 62  220/  8/ 11 1017.8F
44100 DUCK FRF   0305      76                N/A     2/15   2/15
44056 DUCK FRF   0400      68                N/A     2/15   2/15
OREGON INLET NC  0348          230/  8/  9 1018.3F
HATTERAS NC      0348   79 80  220/  3/  4 1018.4F
DIAMOND SHLS NC  0350   82 85  220/  8/ 10 1018.4S   2/13   2/13
CAPE LOOKOUT NC  0400   79     210/  4/  5 1017.9F
$$



USA.gov is the U.S. government's official web portal to all federal, state and local government web resources and services.